Weather History for LTAI - September, 2013

Change the Weather History Date:

Sunday, September 22, 2013

  Actual Average Record
Temperature  
Mean Temperature 80 °F -  
Max Temperature 89 °F 81 °F 98 °F (2000)
Min Temperature 70 °F 61 °F 59 °F (2002)
Cooling Degree Days 14    
Growing Degree Days 30 (Base 50)    
Moisture  
Dew Point 50 °F    
Average Humidity 39    
Maximum Humidity 69    
Minimum Humidity 14    
Precipitation  
Precipitation 0.00 in 0.07 in - ()
Sea Level Pressure  
Sea Level Pressure 29.79 in    
Wind  
Wind Speed 9 mph ()    
Max Wind Speed 20 mph    
Max Gust Speed -    
Visibility 6.2 miles    
Events      
Averages and records for this station are not official NWS values.
T = Trace of Precipitation, MM = Missing Value Source: Averaged Metar Reports

Daily Weather History Graph

Daily Weather History Graph

Search for Another Location

Airport or City:

Trip Planner

Search our weather history database for the weather conditions in past years. The results will help you decide how hot, cold, wet, or windy it might be!

Date:

Astronomy

Sep. 22, 2013 Rise Set
Actual Time 6:44 AM EEST 6:53 PM EEST
Civil Twilight 6:18 AM EEST 7:19 PM EEST
Nautical Twilight 5:48 AM EEST 7:49 PM EEST
Astronomical Twilight 5:17 AM EEST 8:20 PM EEST
Moon 8:36 PM EEST (9/22) 9:39 AM EEST (9/22)
Length of Visible Light 13h 00m
Length of Day
12h 09m
Waning Gibbous, 90% of the Moon is Illuminated
Sep 22
Waning Gibbous
Sep 27
Last Quarter
Oct 5
New
Oct 12
First Quarter
Oct 19
Full

Hourly Weather History & Observations

Time (EEST) Temp. Heat Index Dew Point Humidity Pressure Visibility Wind Dir Wind Speed Gust Speed Precip Events Conditions
12:20 AM 75.2 °F - 60.8 °F 61% 29.83 in 6.2 mi NW 9.2 mph - N/A   Scattered Clouds
12:50 AM 73.4 °F - 57.2 °F 57% 29.83 in 6.2 mi NW 5.8 mph - N/A   Scattered Clouds
1:20 AM 73.4 °F - 51.8 °F 47% 29.83 in 6.2 mi NW 6.9 mph - N/A   Scattered Clouds
1:50 AM 71.6 °F - 51.8 °F 50% 29.83 in 6.2 mi NW 9.2 mph - N/A   Partly Cloudy
2:20 AM 71.6 °F - 51.8 °F 50% 29.83 in 6.2 mi WNW 5.8 mph - N/A   Partly Cloudy
2:50 AM 71.6 °F - 51.8 °F 50% 29.83 in 6.2 mi WNW 8.1 mph - N/A   Partly Cloudy
3:00 AM 71 °F - 51 °F 39% 29.82 in 6 mi WNW 8.1 mph - -   Scattered Clouds
3:20 AM 71.6 °F - 51.8 °F 50% 29.83 in 6.2 mi WNW 9.2 mph - N/A   Partly Cloudy
3:50 AM 71.6 °F - 50.0 °F 46% 29.83 in - NW 6.9 mph - N/A   Clear
4:20 AM 73.4 °F - 48.2 °F 41% 29.83 in - NW 8.1 mph - N/A   Clear
4:50 AM 73.4 °F - 48.2 °F 41% 29.80 in - NW 9.2 mph - N/A   Clear
5:20 AM 71.6 °F - 48.2 °F 43% 29.80 in - NNW 9.2 mph - N/A   Clear
5:50 AM 73.4 °F - 46.4 °F 38% 29.80 in - NW 11.5 mph - N/A   Clear
6:20 AM 73.4 °F - 46.4 °F 38% 29.83 in - NW 13.8 mph - N/A   Clear
6:50 AM 71.6 °F - 48.2 °F 43% 29.83 in - NW 10.4 mph - N/A   Clear
7:20 AM 73.4 °F - 46.4 °F 38% 29.83 in - NW 13.8 mph - N/A   Clear
7:50 AM 75.2 °F - 46.4 °F 36% 29.83 in - NW 16.1 mph - N/A   Clear
8:20 AM 75.2 °F - 46.4 °F 36% 29.83 in - NW 19.6 mph - N/A   Clear
8:50 AM 77.0 °F - 46.4 °F 34% 29.83 in - NW 15.0 mph - N/A   Clear
9:00 AM 77 °F - 47 °F 23% 29.83 in 6 mi NW 15.0 mph - -  
9:20 AM 78.8 °F - 46.4 °F 32% 29.83 in - NW 17.3 mph - N/A   Clear
9:50 AM 80.6 °F - 46.4 °F 30% 29.83 in - NNW 16.1 mph - N/A   Clear
10:20 AM 84.2 °F - 44.6 °F 25% 29.83 in 6.2 mi NW 13.8 mph - N/A   Partly Cloudy
10:50 AM 82.4 °F - 44.6 °F 26% 29.83 in 6.2 mi NW 12.7 mph - N/A   Partly Cloudy
11:20 AM 84.2 °F - 46.4 °F 27% 29.80 in 6.2 mi NNW 13.8 mph - N/A   Partly Cloudy
11:50 AM 84.2 °F - 46.4 °F 27% 29.80 in 6.2 mi North 10.4 mph - N/A   Partly Cloudy
12:20 PM 84.2 °F - 46.4 °F 27% 29.80 in 6.2 mi North 10.4 mph - N/A   Partly Cloudy
12:50 PM 87.8 °F - 44.6 °F 22% 29.80 in 6.2 mi NNE 8.1 mph - N/A   Partly Cloudy
1:20 PM 87.8 °F - 42.8 °F 21% 29.77 in 6.2 mi Variable 8.1 mph - N/A   Partly Cloudy
1:50 PM 87.8 °F - 42.8 °F 21% 29.77 in 6.2 mi NW 6.9 mph - N/A   Partly Cloudy
2:20 PM 87.8 °F - 42.8 °F 21% 29.77 in 6.2 mi Variable 5.8 mph - N/A   Partly Cloudy
2:50 PM 87.8 °F - 46.4 °F 24% 29.77 in 6.2 mi South 9.2 mph - N/A   Partly Cloudy
3:00 PM 88 °F - 46 °F 14% 29.75 in 6 mi South 9.2 mph - -   Scattered Clouds
3:20 PM 86.0 °F 84.2 °F 53.6 °F 33% 29.74 in 6.2 mi South 12.7 mph - N/A   Scattered Clouds
3:50 PM 82.4 °F 81.7 °F 55.4 °F 39% 29.74 in 6.2 mi South 11.5 mph - N/A   Scattered Clouds
4:20 PM 82.4 °F 82.0 °F 57.2 °F 42% 29.74 in 6.2 mi South 15.0 mph - N/A   Scattered Clouds
4:50 PM 82.4 °F 82.5 °F 59.0 °F 45% 29.74 in 6.2 mi South 13.8 mph - N/A   Scattered Clouds
5:20 PM 82.4 °F 82.5 °F 59.0 °F 45% 29.74 in 6.2 mi South 13.8 mph - N/A   Scattered Clouds
5:50 PM 80.6 °F 81.1 °F 59.0 °F 48% 29.74 in 6.2 mi South 13.8 mph - N/A   Scattered Clouds
6:20 PM 78.8 °F - 62.6 °F 57% 29.74 in 6.2 mi South 8.1 mph - N/A   Scattered Clouds
6:50 PM 78.8 °F - 66.2 °F 65% 29.74 in 6.2 mi SSW 5.8 mph - N/A   Partly Cloudy
7:20 PM 77.0 °F - 66.2 °F 69% 29.74 in 6.2 mi Variable 1.2 mph - N/A   Partly Cloudy
7:50 PM 77.0 °F - 64.4 °F 65% 29.74 in 6.2 mi North 4.6 mph - N/A   Partly Cloudy
8:20 PM 77.0 °F - 62.6 °F 61% 29.74 in - North 4.6 mph - N/A   Clear
8:50 PM 75.2 °F - 60.8 °F 61% 29.77 in - North 11.5 mph - N/A   Clear
9:00 PM 75 °F - 61 °F 52% 29.75 in 6 mi North 11.5 mph - -  
9:20 PM 75.2 °F - 48.2 °F 38% 29.77 in - North 10.4 mph - N/A   Clear
9:50 PM 75.2 °F - 42.8 °F 31% 29.77 in - North 11.5 mph - N/A   Clear
10:20 PM 77.0 °F - 41.0 °F 28% 29.77 in - Variable 10.4 mph - N/A   Clear
10:50 PM 75.2 °F - 41.0 °F 29% 29.77 in - NW 8.1 mph - N/A   Clear
11:20 PM 75.2 °F - 41.0 °F 29% 29.77 in - NW 10.4 mph - N/A   Clear
11:50 PM 75.2 °F - 39.2 °F 27% 29.77 in - NW 10.4 mph - N/A   Clear